Simultaneous Nadir Overpasses (SNOs) Predictions

Prediction of SNOs between LANDSAT-8 and METOP-B Satellite Orbit:

Table of predicted SNOs for the next 14.0 days since TLE Epoch: 11/6/2021
Index Date (LANDSAT-8) Time (LANDSAT-8) Lat,Lon (LANDSAT-8) SZA (LANDSAT-8 ) Date (METOP-B) Time (METOP-B) Lat,Lon (METOP-B) SZA (METOP-B ) Distance(km) Time Diff (sec)
1 11/08/2021 02:04:16 -81.13, 8.94 79.91 11/08/2021 02:03:32 -81.13, 8.98 79.92 0.67 44
2 11/08/2021 02:53:41 81.16, 177.05 100.18 11/08/2021 02:54:10 81.16, 177.20 100.21 2.62 29
3 11/10/2021 21:38:29 -81.13, 75.48 79.11 11/10/2021 21:37:53 -81.13, 75.54 79.11 1.01 36
4 11/10/2021 22:27:55 81.14,-116.81 100.92 11/10/2021 22:28:33 81.14,-117.00 100.92 3.28 38
5 11/13/2021 17:12:43 -81.13, 141.95 78.36 11/13/2021 17:12:15 -81.14, 142.06 78.36 1.98 28
6 11/13/2021 18:02:08 81.16, -50.01 101.72 11/13/2021 18:02:54 81.15, -50.11 101.72 1.80 46
7 11/16/2021 12:46:57 -81.13,-151.66 77.67 11/16/2021 12:46:38 -81.13,-151.83 77.70 2.96 19
8 11/16/2021 13:36:22 81.15, 16.35 102.40 11/16/2021 13:37:16 81.16, 16.38 102.43 0.44 54
9 11/19/2021 08:21:09 -81.15, -84.98 76.98 11/19/2021 08:20:58 -81.14, -85.01 76.99 0.81 11



Historial Predications of SNOs between LANDSAT-8 and METOP-B
